{"data":{"norad_id":63021,"intl_designator":"2025-032S","name":"STARLINK-32929","alt_names":[],"object_type":"PAYLOAD","status":"ACTIVE","operator":null,"country":"US","launch_date":"2025-02-15","launch_site_code":"AFETR","launch_vehicle":null,"mission":null,"orbit_class":"UNKNOWN","rcs_meters":null,"size_class":null,"mass_kg":null,"dimensions":null,"purposes":["comms"],"wikipedia_slug":null,"has_3d_model":false,"image_url":null,"decayed_at":null,"tle_current":{"epoch":"2026-09-21T10:16:46.504128Z","epoch_age_seconds":85514,"freshness":"FRESH","line1":"1 63021U 25032S   26264.42831602  .00016492  00000+0  60733-3 0  9993","line2":"2 63021  43.0008 310.7985 0001275 272.4250  87.6456 15.27589088 90557","mean_motion":15.27589088,"eccentricity":0.0001275,"inclination_deg":43.0008,"raan_deg":310.7985,"arg_perigee_deg":272.425,"mean_anomaly_deg":87.6456,"bstar":0.00060733,"rev_number":9055,"period_min":94.266187897776,"perigee_km":482.14708567554,"apogee_km":483.89668119081,"semimajor_km":6861.1588834332,"source":"CELESTRAK","updated_at":"2026-09-22T09:00:49.742013Z"}}}